Regional Weather Roundup
Issued by NWS

Home | Current Version | Previous Version | Text Only | Print | Product List | Glossary Off
Versions: 1 2 3 4 5 6 7 8 9 10 11 12 13 14 15 16 17 18 19 20 21 22 23 24 25 26 27 28 29 30 31 32 33 34 35 36 37 38 39 40 41 42 43 44 45 46 47 48 49 50

000
ASUS45 KABQ 171710
RWRNM
WEATHER ROUNDUP FOR NEW MEXICO
NATIONAL WEATHER SERVICE ALBUQUERQUE NM
1000 AM MST WED DEC 17 2014

NOTE: "FAIR" MEANS FEW OR NO CLOUDS BELOW 12,000 FEET AGL WITH NO
       SIGNIFICANT WEATHER OR OBSTRUCTIONS TO VISION.

      THIS PRODUCT IS RELEASED AS TWO VERSIONS.  ONE VERSION NEAR
      THE TOP OF THE HOUR CONTAINING PRELIMINARY DATA FROM ALBUQUERQUE
      AND OTHER STATIONS.  A FINAL VERSION WITH ADDITIONAL DATA IS
      ISSUED ABOUT 10 MINUTES AFTER THE HOUR.

NMZ501-503-504-510>518-171800-
NORTHWEST PLATEAU/NORTHCENTRAL MOUNTAINS

CITY           SKY/WX    TMP DP  RH WIND       PRES   REMARKS
FARMINGTON     PTSUNNY   39  26  59 VRB3      29.99R
LOS ALAMOS     LGT SNOW  30  30 100 SE5       30.01S WCI  26
SANTA FE       LGT SNOW  31  29  92 SE5       30.02S FOG     WCI  26
TAOS           CLOUDY    27  21  80 CALM      30.02R
ANGEL FIRE     LGT SNOW  24  20  86 W5        30.02S VSB 1   WCI  18

$$
NMZ402-403-502-505>509-171800-
WESTCENTRAL MOUNTAINS/SOUTHWEST MOUNTAINS

CITY           SKY/WX    TMP DP  RH WIND       PRES   REMARKS
GALLUP         MIX PCPN  34  32  92 CALM      30.02S
GRANTS         CLOUDY    32  31  96 SE6       30.04S WCI  27
SILVER CITY    CLOUDY    45  34  65 W8        30.11R

$$
NMZ407-409-411-412-171800-
SOUTHERN DESERTS

CITY           SKY/WX    TMP DP  RH WIND       PRES   REMARKS
LORDSBURG      CLOUDY    46  34  61 SW6       30.10R
DEMING         PTSUNNY   51  35  54 SW15G24   30.09R
LAS CRUCES     SUNNY     49  30  47 CALM      30.11R
HOLLOMAN AFB   MOSUNNY   48  30  49 S9        30.07R
ALAMOGORDO     MOSUNNY   54  32  43 S12       30.08R
T OR C         MOSUNNY   45  29  53 SE8       30.05R

$$
NMZ519>523-171800-
CENTRAL VALLEYS/CENTRAL HIGHLANDS

CITY           SKY/WX    TMP DP  RH WIND       PRES   REMARKS
ALBUQUERQUE    PTSUNNY   36  34  92 NW3       30.04S
DOUBLE EAGLE   CLOUDY    34  34 100 S3        30.04S
MORIARTY ARPT  FAIR      37  32  81 SW3       30.04R
CLINES CORNERS CLOUDY    40  28  62 SW13      30.00R WCI  32
BELEN          CLOUDY    35  35  98 CALM      30.04S
SOCORRO        PTSUNNY   39  28  65 CALM      30.05R

$$
NMZ524>526-539-540-171800-
SOUTHCENTRAL MOUNTAINS

CITY           SKY/WX    TMP DP  RH WIND       PRES   REMARKS
RUIDOSO        MOSUNNY   43  28  56 SW18G25   30.06S

$$
NMZ527>531-171800-
NORTHEAST HIGHLANDS/NORTHEAST PLAINS

CITY           SKY/WX    TMP DP  RH WIND       PRES   REMARKS
LAS VEGAS      PTSUNNY   39  30  70 SW10      29.98F WCI  32
RATON          CLOUDY    28  23  81 NW3       29.99R
CLAYTON        CLOUDY    40  28  62 SW15      30.00F WCI  32

$$
NMZ532>537-171800-
EASTCENTRAL PLAINS

CITY           SKY/WX    TMP DP  RH WIND       PRES   REMARKS
TUCUMCARI      MOSUNNY   47  30  51 SW12      30.01F
CANNON AFB     CLOUDY    43  29  58 S13       30.04F
CLOVIS AIRPORT CLOUDY    43  28  56 S10       30.05S

$$
NMZ028-029-538-171800-
SOUTHEAST PLAINS

CITY           SKY/WX    TMP DP  RH WIND       PRES   REMARKS
ROSWELL        SUNNY     45  29  53 CALM      30.05F
ARTESIA        SUNNY     45  30  57 CALM      30.07F
CARLSBAD       SUNNY     49  32  52 S6        30.05S
HOBBS          SUNNY     50  34  53 SE13      30.06F


$$



USA.gov is the U.S. government's official web portal to all federal, state and local government web resources and services.